Flag for U.S.A. Weather past 2 weeks in Albuquerque, New Mexico, U.S.A.

Now
54 °F

Clear.


Feels Like: 54 °F
Forecast: 46 / 77 °F
Wind: No wind

Location: Albuquerque International Airport

Current Time: Oct 1, 2014 at 2:28:38 AM

Latest Report: Oct 1, 2014 at 1:52 AM


Visibility: 10 mi

Pressure: 29.78 "Hg

Humidity: 45%

Dew point: 33 °F

Location of AlbuquerqueLocation

Historic Weather in Albuquerque — Graph

°F

Albuquerque temperature yesterday

Maximum temperature yesterday: 75 °F (at 5:52 PM)
Minimum temperature yesterday: 49 °F (at 3:52 AM)
Average temperature yesterday: 62 °F

Past Weeks' High & Low Weather Summary

 TemperatureHumidityPressure
High90 °F (Sep 20, 3:52 PM)90% (Sep 17, 9:52 AM)30.17 "Hg (Sep 17, 9:52 AM)
Low49 °F (Sep 30, 3:52 AM)17% (Sep 20, 3:52 PM)29.71 "Hg (Sep 30, 5:52 PM)
Average69 °F56%29.94 "Hg
* Reported Sep 16 12:52 AM — Oct 1 12:52 AM, Albuquerque, Weather by CustomWeather, © 2014

Note: Actual official high and low records may vary slightly from our data, if they occured in-between our weather recording intervals... More about our weather records

Advertising

Albuquerque weather history for previous 24 hours

 ConditionsComfort  
Time TempWeatherWind HumidityBarometerVisibility
12:52 AM
Oct 1
54 °FClear.6 mph45%29.78 "Hg10 mi
11:52 PM
Sep 30
60 °FClear.No wind36%29.78 "Hg10 mi
10:52 PM62 °FClear.5 mph34%29.78 "Hg10 mi
9:52 PM65 °FClear.5 mph29%29.79 "Hg10 mi
8:52 PM67 °FClear.9 mph26%29.78 "Hg10 mi
7:52 PM69 °FClear.10 mph24%29.76 "Hg10 mi
6:52 PM72 °FPassing clouds.10 mph22%29.74 "Hg10 mi
5:52 PM75 °FPassing clouds.7 mph19%29.71 "Hg10 mi
4:52 PM74 °FPassing clouds.5 mph20%29.73 "Hg10 mi
3:52 PM73 °FPassing clouds.5 mph21%29.75 "Hg10 mi
2:52 PM74 °FPassing clouds.13 mph21%29.75 "Hg10 mi
1:52 PM71 °FPassing clouds.10 mph23%29.78 "Hg10 mi
12:52 PM68 °FSunny.No wind25%29.82 "Hg10 mi
11:52 AM65 °FSunny.3 mph28%29.85 "Hg10 mi
10:52 AM61 °FSunny.6 mph36%29.88 "Hg10 mi
9:52 AM56 °FSunny.No wind47%29.89 "Hg10 mi
8:52 AM54 °FSunny.No wind53%29.89 "Hg10 mi
7:52 AM50 °FClear.No wind61%29.90 "Hg10 mi
6:52 AM50 °FClear.No wind57%29.88 "Hg10 mi
5:52 AM52 °FClear.5 mph55%29.86 "Hg10 mi
4:52 AM50 °FClear.No wind59%29.86 "Hg10 mi
3:52 AM49 °FClear.5 mph61%29.87 "Hg10 mi
2:52 AM54 °FClear.5 mph51%29.86 "Hg10 mi
Weather by CustomWeather, © 2014

See weather overviewHow to use our weather pages